| time (UTC) | temp C | wind direction | speed KPH | gust KPH | rain 1hr cm | rain 24hr cm | rain mn cm | humidity % | barometer mb |
| 20260506144849 | 16 | 275 | 3.2 | 8.0 | 0.00 | 0.00 | 0.00 | 84 | 1008.0 |
| 20260506144836 | 16 | 132 | 3.2 | 12.9 | 0.00 | 0.00 | 0.00 | 65 | 1009.7 |
| 20260506143342 | 16 | 160 | 3.2 | 14.5 | 0.00 | 0.00 | 0.00 | 65 | 1009.6 |
| 20260506143329 | 16 | 175 | 4.8 | 12.9 | 0.00 | 0.00 | 0.00 | 84 | 1007.9 |
| 20260506141842 | 16 | 191 | 3.2 | 9.7 | 0.00 | 0.00 | 0.00 | 65 | 1009.3 |
| 20260506141828 | 16 | 157 | 3.2 | 11.3 | 0.00 | 0.00 | 0.00 | 84 | 1007.5 |
| 20260506140437 | 16 | 199 | 1.6 | 11.3 | 0.00 | 0.00 | 0.00 | 84 | 1007.9 |
| 20260506140344 | 16 | 202 | 3.2 | 12.9 | 0.00 | 0.00 | 0.00 | 65 | 1009.6 |
| 20260506134853 | 15 | 96 | 1.6 | 8.0 | 0.00 | 0.00 | 0.00 | 65 | 1009.2 |
| 20260506134829 | 15 | 187 | 8.0 | 16.1 | 0.00 | 0.00 | 0.00 | 85 | 1007.6 |
| 20260506133334 | 15 | 249 | 3.2 | 11.3 | 0.00 | 0.00 | 0.00 | 67 | 1009.3 |
| 20260506133332 | 15 | 144 | 3.2 | 11.3 | 0.00 | 0.00 | 0.00 | 86 | 1007.6 |
| 20260506131902 | 15 | 141 | 4.8 | 17.7 | 0.00 | 0.00 | 0.00 | 68 | 1009.4 |
| 20260506131813 | 15 | 138 | 3.2 | 12.9 | 0.00 | 0.00 | 0.00 | 86 | 1007.7 |
| 20260506130346 | 14 | 164 | 4.8 | 14.5 | 0.00 | 0.00 | 0.00 | 68 | 1009.7 |
| 20260506130332 | 15 | 276 | 1.6 | 8.0 | 0.00 | 0.00 | 0.00 | 87 | 1008.1 |
| 20260506124847 | 14 | 101 | 3.2 | 14.5 | 0.00 | 0.00 | 0.00 | 68 | 1009.9 |
| 20260506124837 | 15 | 98 | 1.6 | 11.3 | 0.00 | 0.00 | 0.00 | 87 | 1008.3 |
| 20260506123404 | 14 | 145 | 3.2 | 14.5 | 0.00 | 0.00 | 0.00 | 88 | 1008.6 |
| 20260506123328 | 14 | 137 | 1.6 | 8.0 | 0.00 | 0.00 | 0.00 | 68 | 1010.0 |
| 20260506121844 | 14 | 143 | 6.4 | 17.7 | 0.00 | 0.00 | 0.00 | 89 | 1008.2 |
| 20260506121827 | 14 | 203 | 6.4 | 14.5 | 0.00 | 0.00 | 0.00 | 68 | 1009.8 |
| 20260506120337 | 14 | 177 | 3.2 | 16.1 | 0.00 | 0.00 | 0.00 | 68 | 1009.5 |
| 20260506120322 | 14 | 153 | 14.5 | 17.7 | 0.00 | 0.00 | 0.00 | 89 | 1007.8 |
| 20260506114903 | 14 | 179 | 6.4 | 12.9 | 0.00 | 0.00 | 0.00 | 68 | 1009.6 |
| 20260506114824 | 13 | 153 | 12.9 | 16.1 | 0.00 | 0.00 | 0.00 | 89 | 1008.1 |
| 20260506113344 | 13 | 151 | 6.4 | 14.5 | 0.00 | 0.00 | 0.00 | 89 | 1008.3 |
| 20260506113327 | 13 | 118 | 6.4 | 14.5 | 0.00 | 0.00 | 0.00 | 68 | 1009.6 |
| 20260506111842 | 13 | 157 | 9.7 | 14.5 | 0.00 | 0.00 | 0.00 | 89 | 1008.5 |
| 20260506111835 | 13 | 118 | 6.4 | 16.1 | 0.00 | 0.00 | 0.00 | 68 | 1009.8 |
| 20260506110338 | 13 | 108 | 3.2 | 8.0 | 0.00 | 0.00 | 0.00 | 68 | 1009.7 |
| 20260506110320 | 13 | 153 | 12.9 | 17.7 | 0.00 | 0.00 | 0.00 | 89 | 1008.4 |
| 20260506104902 | 13 | 150 | 14.5 | 19.3 | 0.00 | 0.00 | 0.00 | 89 | 1008.2 |
| 20260506104843 | 13 | 145 | 4.8 | 12.9 | 0.00 | 0.00 | 0.00 | 68 | 1009.6 |
| 20260506103347 | 13 | 178 | 8.0 | 20.9 | 0.00 | 0.00 | 0.00 | 68 | 1009.7 |
| 20260506103324 | 13 | 155 | 12.9 | 16.1 | 0.00 | 0.00 | 0.00 | 89 | 1008.3 |
| 20260506101853 | 13 | 153 | 11.3 | 17.7 | 0.00 | 0.00 | 0.00 | 88 | 1008.2 |
| 20260506101832 | 13 | 149 | 4.8 | 14.5 | 0.00 | 0.00 | 0.00 | 68 | 1009.6 |
| 20260506100333 | 13 | 157 | 9.7 | 17.7 | 0.00 | 0.00 | 0.00 | 87 | 1008.1 |
| 20260506100328 | 13 | 139 | 1.6 | 11.3 | 0.00 | 0.00 | 0.00 | 68 | 1009.5 |
| 20260506094921 | 13 | 111 | 3.2 | 12.9 | 0.00 | 0.00 | 0.00 | 67 | 1009.5 |
| 20260506094815 | 13 | 165 | 8.0 | 17.7 | 0.00 | 0.00 | 0.00 | 88 | 1008.0 |
| 20260506093334 | 12 | 112 | 1.6 | 12.9 | 0.00 | 0.00 | 0.00 | 88 | 1008.1 |
| 20260506093331 | 13 | 110 | 3.2 | 14.5 | 0.00 | 0.00 | 0.00 | 67 | 1009.7 |
| 20260506091854 | 12 | 355 | 0.0 | 3.2 | 0.00 | 0.00 | 0.00 | 88 | 1008.1 |
| 20260506091829 | 13 | 134 | 4.8 | 11.3 | 0.00 | 0.00 | 0.00 | 66 | 1009.5 |
| 20260506090335 | 13 | 119 | 3.2 | 12.9 | 0.00 | 0.00 | 0.00 | 65 | 1009.6 |
| 20260506084925 | 13 | 135 | 4.8 | 12.9 | 0.00 | 0.00 | 0.00 | 65 | 1009.6 |
| 20260506084814 | 12 | 42 | 0.0 | 1.6 | 0.00 | 0.00 | 0.00 | 88 | 1008.3 |
| 20260506083353 | 13 | 85 | 3.2 | 9.7 | 0.00 | 0.00 | 0.00 | 64 | 1009.8 |
| 20260506083331 | 12 | 5 | 0.0 | 1.6 | 0.00 | 0.00 | 0.00 | 87 | 1008.4 |
| 20260506081829 | 13 | 5 | 0.0 | 1.6 | 0.00 | 0.00 | 0.00 | 86 | 1008.3 |
| 20260506080415 | 13 | 79 | 3.2 | 9.7 | 0.00 | 0.00 | 0.00 | 63 | 1009.8 |
| 20260506080347 | 13 | 9 | 0.0 | 0.0 | 0.00 | 0.00 | 0.00 | 84 | 1008.5 |
| 20260506080332 | 13 | 79 | 3.2 | 9.7 | 0.00 | 0.00 | 0.00 | 63 | 1009.8 |
| 20260506073355 | 14 | 91 | 3.2 | 4.8 | 0.00 | 0.00 | 0.00 | 62 | 1009.9 |
| 20260506073339 | 15 | 244 | 0.0 | 3.2 | 0.00 | 0.00 | 0.00 | 80 | 1008.6 |
| 20260506071920 | 14 | 145 | 1.6 | 9.7 | 0.00 | 0.00 | 0.00 | 61 | 1010.0 |
| 20260506071845 | 15 | 211 | 0.0 | 3.2 | 0.00 | 0.00 | 0.00 | 79 | 1008.5 |
| 20260506070338 | 15 | 110 | 1.6 | 6.4 | 0.00 | 0.00 | 0.00 | 61 | 1010.1 |
| 20260506070316 | 15 | 251 | 0.0 | 3.2 | 0.00 | 0.00 | 0.00 | 78 | 1008.6 |
| 20260506061901 | 15 | 260 | 1.6 | 6.4 | 0.00 | 0.00 | 0.00 | 76 | 1008.4 |
| 20260506061854 | 15 | 88 | 3.2 | 9.7 | 0.00 | 0.00 | 0.00 | 59 | 1009.9 |
| 20260506060424 | 15 | 143 | 4.8 | 9.7 | 0.00 | 0.00 | 0.00 | 58 | 1010.0 |
| 20260506060321 | 16 | 284 | 1.6 | 3.2 | 0.00 | 0.00 | 0.00 | 75 | 1008.5 |
| 20260506050332 | 16 | 108 | 6.4 | 14.5 | 0.00 | 0.00 | 0.00 | 55 | 1010.1 |
| 20260506050322 | 16 | 155 | 0.0 | 6.4 | 0.00 | 0.00 | 0.00 | 72 | 1008.7 |
| 20260506044905 | 16 | 134 | 4.8 | 9.7 | 0.00 | 0.00 | 0.00 | 54 | 1010.2 |
| 20260506044820 | 16 | 188 | 0.0 | 4.8 | 0.00 | 0.00 | 0.00 | 71 | 1008.9 |
| 20260506043349 | 16 | 169 | 3.2 | 12.9 | 0.00 | 0.00 | 0.00 | 54 | 1010.2 |
| 20260506043321 | 17 | 265 | 3.2 | 6.4 | 0.00 | 0.00 | 0.00 | 71 | 1008.7 |
| 20260506041833 | 17 | 16 | 3.2 | 12.9 | 0.00 | 0.00 | 0.00 | 54 | 1010.1 |
| 20260506041830 | 17 | 172 | 3.2 | 8.0 | 0.00 | 0.00 | 0.00 | 71 | 1008.6 |
| 20260506040419 | 17 | 89 | 4.8 | 14.5 | 0.00 | 0.00 | 0.00 | 54 | 1010.2 |
| 20260506040313 | 17 | 173 | 1.6 | 6.4 | 0.00 | 0.00 | 0.00 | 70 | 1008.7 |
| 20260506034856 | 17 | 176 | 3.2 | 11.3 | 0.00 | 0.00 | 0.00 | 69 | 1008.7 |
| 20260506034831 | 17 | 99 | 8.0 | 14.5 | 0.00 | 0.00 | 0.00 | 53 | 1010.3 |
| 20260506033351 | 17 | 140 | 4.8 | 11.3 | 0.00 | 0.00 | 0.00 | 53 | 1010.1 |
| 20260506033335 | 18 | 121 | 3.2 | 6.4 | 0.00 | 0.00 | 0.00 | 69 | 1008.5 |
| 20260506031841 | 18 | 253 | 0.0 | 8.0 | 0.00 | 0.00 | 0.00 | 69 | 1008.5 |
| 20260506031826 | 18 | 264 | 4.8 | 8.0 | 0.00 | 0.00 | 0.00 | 53 | 1010.1 |
| 20260506030341 | 18 | 112 | 1.6 | 6.4 | 0.00 | 0.00 | 0.00 | 52 | 1010.1 |
| 20260506030316 | 18 | 298 | 0.0 | 4.8 | 0.00 | 0.00 | 0.00 | 69 | 1008.5 |
| 20260506024842 | 18 | 137 | 3.2 | 11.3 | 0.00 | 0.00 | 0.00 | 52 | 1009.9 |
| 20260506023349 | 18 | 100 | 3.2 | 9.7 | 0.00 | 0.00 | 0.00 | 54 | 1009.9 |
| 20260506023344 | 18 | 148 | 1.6 | 6.4 | 0.00 | 0.00 | 0.00 | 70 | 1008.4 |
| 20260506021851 | 18 | 127 | 4.8 | 12.9 | 0.00 | 0.00 | 0.00 | 54 | 1010.1 |
| 20260506021843 | 18 | 275 | 1.6 | 6.4 | 0.00 | 0.00 | 0.00 | 70 | 1008.6 |
| 20260506020354 | 18 | 178 | 3.2 | 9.7 | 0.00 | 0.00 | 0.00 | 52 | 1010.4 |
| 20260506020340 | 17 | 57 | 0.0 | 4.8 | 0.00 | 0.00 | 0.00 | 76 | 1008.6 |
| 20260506014924 | 19 | 156 | 4.8 | 14.5 | 0.00 | 0.00 | 0.00 | 52 | 1009.7 |
| 20260506014904 | 17 | 9 | 1.6 | 11.3 | 0.00 | 0.00 | 0.00 | 77 | 1008.2 |
| 20260506014821 | 17 | 9 | 1.6 | 11.3 | 0.00 | 0.00 | 0.00 | 77 | 1008.2 |
| 20260506013400 | 18 | 355 | 1.6 | 9.7 | 0.00 | 0.00 | 0.00 | 75 | 1008.3 |
| 20260506013327 | 19 | 108 | 6.4 | 9.7 | 0.00 | 0.00 | 0.00 | 52 | 1009.6 |
| 20260506011833 | 19 | 120 | 3.2 | 6.4 | 0.00 | 0.00 | 0.00 | 50 | 1009.6 |
| 20260506011821 | 18 | 151 | 0.0 | 3.2 | 0.00 | 0.00 | 0.00 | 72 | 1008.0 |
| 20260506010430 | 18 | 146 | 0.0 | 3.2 | 0.00 | 0.00 | 0.00 | 72 | 1007.9 |
| 20260506010335 | 19 | 87 | 3.2 | 9.7 | 0.00 | 0.00 | 0.00 | 50 | 1009.5 |
| 20260506004912 | 18 | 154 | 0.0 | 9.7 | 0.00 | 0.00 | 0.00 | 69 | 1007.7 |
| 20260506004902 | 19 | 86 | 3.2 | 4.8 | 0.00 | 0.00 | 0.00 | 50 | 1009.3 |
| 20260506003330 | 20 | 260 | 0.0 | 1.6 | 0.00 | 0.00 | 0.00 | 67 | 1007.8 |
| 20260506003326 | 20 | 106 | 4.8 | 6.4 | 0.00 | 0.00 | 0.00 | 48 | 1009.2 |
| 20260506001853 | 20 | 263 | 1.6 | 3.2 | 0.00 | 0.00 | 0.00 | 63 | 1007.7 |
| 20260506001833 | 20 | 127 | 0.0 | 3.2 | 0.00 | 0.00 | 0.00 | 47 | 1009.3 |
| 20260506000355 | 20 | 114 | 3.2 | 6.4 | 0.00 | 0.00 | 0.00 | 48 | 1009.0 |
| 20260506000312 | 21 | 290 | 0.0 | 1.6 | 0.00 | 0.00 | 0.00 | 65 | 1007.5 |
| 20260505234851 | 21 | 167 | 0.0 | 9.7 | 0.00 | 0.00 | 0.00 | 46 | 1009.0 |
| 20260505234832 | 21 | 278 | 1.6 | 4.8 | 0.00 | 0.00 | 0.00 | 62 | 1007.5 |
| 20260505233401 | 21 | 298 | 4.8 | 6.4 | 0.00 | 0.00 | 0.00 | 61 | 1006.8 |
| 20260505233340 | 21 | 264 | 0.0 | 6.4 | 0.00 | 0.00 | 0.00 | 44 | 1008.6 |
| 20260505233319 | 21 | 298 | 4.8 | 6.4 | 0.00 | 0.00 | 0.00 | 61 | 1006.8 |
| 20260505231902 | 21 | 39 | 3.2 | 19.3 | 0.00 | 0.00 | 0.00 | 43 | 1008.2 |
| 20260505231821 | 22 | 334 | 3.2 | 6.4 | 0.00 | 0.00 | 0.00 | 58 | 1006.6 |
| 20260505230345 | 22 | 25 | 3.2 | 16.1 | 0.00 | 0.00 | 0.00 | 37 | 1008.0 |
| 20260505230337 | 23 | 304 | 3.2 | 8.0 | 0.00 | 0.00 | 0.00 | 54 | 1006.3 |
| 20260505224916 | 23 | 330 | 8.0 | 29.0 | 0.00 | 0.00 | 0.00 | 36 | 1007.0 |
| 20260505224839 | 23 | 71 | 4.8 | 19.3 | 0.00 | 0.00 | 0.00 | 54 | 1005.4 |
| 20260505223344 | 23 | 229 | 8.0 | 17.7 | 0.00 | 0.00 | 0.00 | 36 | 1006.3 |
| 20260505223315 | 23 | 244 | 3.2 | 16.1 | 0.00 | 0.00 | 0.00 | 53 | 1005.0 |
| 20260505221935 | 25 | 241 | 3.2 | 25.7 | 0.00 | 0.00 | 0.00 | 34 | 1006.1 |
| 20260505221816 | 23 | 232 | 6.4 | 14.5 | 0.00 | 0.00 | 0.00 | 53 | 1004.8 |
| 20260505220402 | 23 | 161 | 6.4 | 22.5 | 0.00 | 0.00 | 0.00 | 52 | 1004.5 |
| 20260505220351 | 26 | 142 | 9.7 | 22.5 | 0.00 | 0.00 | 0.00 | 30 | 1005.7 |
| 20260505214926 | 26 | 218 | 12.9 | 27.4 | 0.00 | 0.00 | 0.00 | 19 | 1005.8 |
| 20260505214820 | 25 | 117 | 9.7 | 20.9 | 0.00 | 0.00 | 0.00 | 50 | 1004.2 |
| 20260505213426 | 27 | 311 | 6.4 | 22.5 | 0.00 | 0.00 | 0.00 | 21 | 1005.5 |
| 20260505213402 | 25 | 67 | 4.8 | 22.5 | 0.00 | 0.00 | 0.00 | 46 | 1004.1 |
| 20260505211913 | 28 | 191 | 8.0 | 32.2 | 0.00 | 0.00 | 0.00 | 19 | 1005.3 |
| 20260505211841 | 26 | 180 | 4.8 | 20.9 | 0.00 | 0.00 | 0.00 | 37 | 1003.9 |
| 20260505210423 | 27 | 229 | 9.7 | 29.0 | 0.00 | 0.00 | 0.00 | 20 | 1005.0 |
| 20260505210313 | 26 | 338 | 4.8 | 25.7 | 0.00 | 0.00 | 0.00 | 37 | 1003.7 |
| 20260505204930 | 27 | 109 | 11.3 | 40.2 | 0.00 | 0.00 | 0.00 | 20 | 1005.2 |
| 20260505204840 | 26 | 165 | 4.8 | 14.5 | 0.00 | 0.00 | 0.00 | 37 | 1003.6 |
| 20260505203357 | 27 | 236 | 11.3 | 33.8 | 0.00 | 0.00 | 0.00 | 21 | 1005.2 |
| 20260505203315 | 26 | 156 | 6.4 | 24.1 | 0.00 | 0.00 | 0.00 | 38 | 1003.6 |
| 20260505201901 | 26 | 128 | 8.0 | 19.3 | 0.00 | 0.00 | 0.00 | 38 | 1003.8 |
| 20260505201837 | 27 | 171 | 11.3 | 33.8 | 0.00 | 0.00 | 0.00 | 25 | 1005.2 |
| 20260505200425 | 26 | 248 | 11.3 | 30.6 | 0.00 | 0.00 | 0.00 | 23 | 1005.4 |
| 20260505200321 | 26 | 145 | 6.4 | 35.4 | 0.00 | 0.00 | 0.00 | 37 | 1004.1 |
| 20260505194849 | 26 | 245 | 9.7 | 32.2 | 0.00 | 0.00 | 0.00 | 23 | 1005.5 |
| 20260505194840 | 26 | 115 | 4.8 | 24.1 | 0.00 | 0.00 | 0.00 | 38 | 1004.0 |
| 20260505193338 | 26 | 70 | 6.4 | 17.7 | 0.00 | 0.00 | 0.00 | 36 | 1004.3 |
| 20260505193333 | 27 | 151 | 8.0 | 19.3 | 0.00 | 0.00 | 0.00 | 23 | 1005.6 |
| 20260505191842 | 26 | 295 | 8.0 | 27.4 | 0.00 | 0.00 | 0.00 | 39 | 1004.3 |
| 20260505191838 | 27 | 135 | 8.0 | 38.6 | 0.00 | 0.00 | 0.00 | 21 | 1005.6 |
| 20260505190335 | 26 | 232 | 8.0 | 27.4 | 0.00 | 0.00 | 0.00 | 30 | 1005.6 |
| 20260505190313 | 25 | 155 | 8.0 | 20.9 | 0.00 | 0.00 | 0.00 | 45 | 1004.5 |
| 20260505184844 | 26 | 153 | 11.3 | 32.2 | 0.00 | 0.00 | 0.00 | 31 | 1005.8 |
| 20260505184814 | 25 | 175 | 8.0 | 33.8 | 0.00 | 0.00 | 0.00 | 46 | 1004.6 |
| 20260505183330 | 25 | 165 | 11.3 | 24.1 | 0.00 | 0.00 | 0.00 | 46 | 1004.7 |
| 20260505183327 | 26 | 158 | 12.9 | 22.5 | 0.00 | 0.00 | 0.00 | 28 | 1005.9 |
| 20260505181853 | 26 | 141 | 8.0 | 30.6 | 0.00 | 0.00 | 0.00 | 31 | 1006.3 |
| 20260505181831 | 25 | 139 | 11.3 | 22.5 | 0.00 | 0.00 | 0.00 | 45 | 1005.2 |
| 20260505180356 | 26 | 234 | 6.4 | 19.3 | 0.00 | 0.00 | 0.00 | 29 | 1006.6 |
| 20260505180333 | 25 | 130 | 14.5 | 30.6 | 0.00 | 0.00 | 0.00 | 43 | 1005.4 |
| 20260505174913 | 25 | 155 | 9.7 | 25.7 | 0.00 | 0.00 | 0.00 | 46 | 1005.6 |
| 20260505174906 | 26 | 209 | 9.7 | 25.7 | 0.00 | 0.00 | 0.00 | 30 | 1006.9 |
| 20260505173348 | 25 | 127 | 9.7 | 20.9 | 0.00 | 0.00 | 0.00 | 46 | 1005.7 |
| 20260505173332 | 26 | 107 | 12.9 | 27.4 | 0.00 | 0.00 | 0.00 | 32 | 1007.1 |
| 20260505171906 | 24 | 163 | 11.3 | 33.8 | 0.00 | 0.00 | 0.00 | 47 | 1005.5 |
| 20260505171830 | 26 | 232 | 12.9 | 29.0 | 0.00 | 0.00 | 0.00 | 30 | 1007.2 |
| 20260505170418 | 25 | 153 | 11.3 | 30.6 | 0.00 | 0.00 | 0.00 | 33 | 1007.2 |
| 20260505170320 | 23 | 148 | 12.9 | 29.0 | 0.00 | 0.00 | 0.00 | 50 | 1005.8 |
| 20260505164905 | 23 | 38 | 8.0 | 32.2 | 0.00 | 0.00 | 0.00 | 52 | 1006.1 |
| 20260505164837 | 25 | 118 | 11.3 | 22.5 | 0.00 | 0.00 | 0.00 | 31 | 1007.4 |
| 20260505163347 | 24 | 150 | 11.3 | 19.3 | 0.00 | 0.00 | 0.00 | 49 | 1006.4 |
| 20260505163341 | 25 | 266 | 12.9 | 25.7 | 0.00 | 0.00 | 0.00 | 33 | 1007.8 |
| 20260505161933 | 24 | 112 | 11.3 | 24.1 | 0.00 | 0.00 | 0.00 | 36 | 1008.0 |
| 20260505161841 | 23 | 119 | 8.0 | 22.5 | 0.00 | 0.00 | 0.00 | 51 | 1006.6 |
| 20260505161830 | 24 | 112 | 11.3 | 24.1 | 0.00 | 0.00 | 0.00 | 36 | 1008.0 |
| 20260505160422 | 23 | 232 | 6.4 | 16.1 | 0.00 | 0.00 | 0.00 | 49 | 1007.1 |
| 20260505160348 | 24 | 124 | 8.0 | 20.9 | 0.00 | 0.00 | 0.00 | 34 | 1008.4 |
| 20260505153338 | 22 | 134 | 9.7 | 24.1 | 0.00 | 0.00 | 0.00 | 37 | 1008.9 |
| 20260505151857 | 22 | 126 | 6.4 | 19.3 | 0.00 | 0.00 | 0.00 | 40 | 1009.1 |
| 20260505151825 | 22 | 135 | 9.7 | 19.3 | 0.00 | 0.00 | 0.00 | 52 | 1007.6 |
| 20260505150348 | 21 | 167 | 8.0 | 16.1 | 0.00 | 0.00 | 0.00 | 56 | 1008.0 |
| 20260505150346 | 22 | 164 | 8.0 | 22.5 | 0.00 | 0.00 | 0.00 | 38 | 1009.4 |